EW5697 Weather Reports


Display with metric or nautical units.
time (UTC)temp
F
wind
direction
speed
MPH
gust
MPH
rain 1hr
in
rain 24hr
in
rain mn
in
humidity
%
barometer
mb
20260503224520 74 314 0.0 1.0 0.00 0.00 0.00 29 1011.7
20260503223016 73 323 0.0 0.0 0.00 0.00 0.00 33 1011.8
20260503221513 70 309 0.0 0.0 0.00 0.00 0.00 43 1011.9
20260503220011 70 291 0.0 0.0 0.00 0.00 0.00 39 1012.3
20260503214509 69 299 0.0 0.0 0.00 0.00 0.00 38 1012.5
20260503213012 69 58 0.0 0.0 0.00 0.00 0.00 37 1012.8
20260503211508 71 29 0.0 1.0 0.00 0.00 0.00 36 1013.1
20260503210008 72 349 0.0 0.0 0.00 0.00 0.00 34 1012.7
20260503204507 72 278 0.0 0.0 0.00 0.00 0.00 32 1012.7
20260503203012 72 259 0.0 0.0 0.00 0.00 0.00 31 1012.6
20260503201502 70 290 0.0 0.0 0.00 0.00 0.00 40 1012.7
20260503200101 68 292 0.0 0.0 0.00 0.00 0.00 41 1012.9
20260503194553 66 291 0.0 0.0 0.00 0.00 0.00 46 1013.0
20260503193054 66 322 0.0 0.0 0.00 0.00 0.00 47 1013.7
20260503191549 65 322 0.0 0.0 0.00 0.00 0.00 48 1014.0
20260503190047 65 295 0.0 0.0 0.00 0.00 0.00 49 1014.1
20260503184546 65 304 0.0 0.0 0.00 0.00 0.00 49 1014.1
20260503183105 65 324 0.0 0.0 0.00 0.00 0.00 50 1014.0
20260503181602 65 328 0.0 0.0 0.00 0.00 0.00 51 1014.1
20260503180041 64 316 0.0 0.0 0.00 0.00 0.00 53 1014.0
20260503174538 63 317 0.0 0.0 0.00 0.00 0.00 52 1014.1
20260503173036 63 43 0.0 0.0 0.00 0.00 0.00 55 1013.9
20260503171533 62 8 0.0 0.0 0.00 0.00 0.00 56 1014.0
20260503081514 56 147 0.0 0.0 0.00 0.00 0.00 53 1014.8
20260503071509 55 212 0.0 0.0 0.00 0.00 0.00 57 1014.8
20260503054504 57 167 0.0 0.0 0.00 0.00 0.00 57 1014.9
20260503053008 57 173 0.0 0.0 0.00 0.00 0.00 56 1014.9
20260503051504 58 156 0.0 0.0 0.00 0.00 0.00 55 1014.8
20260503050005 58 144 0.0 0.0 0.00 0.00 0.00 54 1014.8
20260503044502 58 154 0.0 0.0 0.00 0.00 0.00 54 1014.6
20260503043002 59 153 0.0 0.0 0.00 0.00 0.00 53 1014.5
20260503041502 59 140 0.0 0.0 0.00 0.00 0.00 52 1014.2
20260503040001 60 159 0.0 0.0 0.00 0.00 0.00 51 1013.9
20260503034501 60 145 0.0 0.0 0.00 0.00 0.00 50 1013.6
20260503033103 61 141 0.0 0.0 0.00 0.00 0.00 50 1013.4
20260503031601 61 116 0.0 0.0 0.00 0.00 0.00 49 1013.2
20260503030059 62 127 0.0 0.0 0.00 0.00 0.00 48 1013.1
20260503024559 63 160 0.0 0.0 0.00 0.00 0.00 45 1013.0
20260503023101 64 144 0.0 1.0 0.00 0.00 0.00 44 1012.9
20260503021559 64 138 0.0 6.0 0.00 0.00 0.00 44 1012.7
20260503020058 65 197 0.0 0.0 0.00 0.00 0.00 43 1012.7
20260503014558 65 212 0.0 0.0 0.00 0.00 0.00 42 1012.6
20260503013102 66 154 0.0 0.0 0.00 0.00 0.00 41 1012.6
20260503011607 66 138 0.0 1.0 0.00 0.00 0.00 40 1012.6
20260503010119 67 207 0.0 2.0 0.00 0.00 0.00 40 1012.7
20260503004555 68 151 0.0 1.0 0.00 0.00 0.00 38 1012.6
20260503003054 70 141 0.0 5.0 0.00 0.00 0.00 36 1012.5
20260503001558 70 180 0.0 6.0 0.00 0.00 0.00 36 1012.5
20260503000057 72 265 0.0 6.0 0.00 0.00 0.00 34 1012.4
20260502234551 72 165 0.0 11.0 0.00 0.00 0.00 34 1012.6
20260502233050 73 185 0.0 8.0 0.00 0.00 0.00 33 1012.7
20260502231549 73 158 0.0 13.0 0.00 0.00 0.00 34 1012.6
20260502230047 72 207 0.0 13.0 0.00 0.00 0.00 34 1012.9